THOR ABLESTAR DEB, 21986

Orbit data source: Space-Track

THOR ABLESTAR DEB, 21986 is space debris in LEO originally from a launch on Thu, 29 Jun 1961 UTC launched from the Air Force Eastern Test Range (AFETR). Debris objects in space refer to the collection of defunct objects orbiting the Earth. Examples of debris include non-operational satellites, rocket bodies, and fragments generated from explosions, collisions, or faulty payload assembly.

Loading next visibility...
Identifier
21986, 1961-015MM
Orbit
LEO
Country
Flag of USUS
Related business
Manufacturer
Unknown
Mission
Spacecraft
Bus & Motor
Unknown
Mass
Unknown
Launch date (UTC)
1961-06-29 (64 years ago)
Launch vehicle
Unknown
Launch site
Air Force Eastern Test Range (AFETR)
Object type
Payload
Rocket body
Debris
Shape & HBR
Unknown shape, 0.1 m
Radar Cross Section
Small (<0.1 m²)

Expand to show TLE details & history
Last TLE update: 4 hours ago

TLE from 4 hours ago
0 THOR ABLESTAR DEB
1 21986U 61015MM  25351.01251806  .00000234  00000-0  18261-3 0  9998
2 21986  66.8765 261.1375 0094381 169.6527 204.4298 14.06269319727288
Epoch: 2025-12-17T00:18Z
TLE epoch observation values (Epoch: 2025-12-17T00:18:01.560Z)
Latitude
12.5006°
Longitude
176.14661°
Altitude
935.927 km
Speed
7.353 km/s
True Right ascension
17h 46m 09s
True Declination
12° 25' 48"
Sunlit
Object was in daylight at epoch
Visualization orbit readout
Latitude
Unknown
Longitude
Unknown
Altitude
Unknown
Speed
Unknown
Apparent Right ascension
Unknown
Apparent Declination
Unknown
Sunlit
N/A
Visualization observer readout
Local Sidereal Time
02:42:41
Azimuth
Unknown
Elevation
Unknown
Doppler factor
Unknown
Orbital elements
Apogee altitude
938.953 km
Perigee altitude
802.125 km
Semi-major axis
7,248.676 km
Eccentricity
0.00944
Inclination
66.8765°
RAAN
261.1375°
Arg. of periapsis
169.6527°
True anomaly
203.98726°
Mean anomaly
204.4298°
Eccentric anomaly
204.20806°
Mean motion
3.51686 °/min
Orbital period
102.36 mins
BSTAR
0.00018261

Documentation

Showing up to 5 results
|